Location: Barly
(50.2003°N, 2.2724°E)
Time: 22:42:03
(UTC+00:00)

Daily predictions for brighter satellites

Satellite Brightness Start Highest point End
(mag) Time Altitude Azimuth Time Altitude Azimuth Time Altitude Azimuth
MOS 1-B 4.5 17:49:23 10° SE 17:55:03 58° ENE 18:00:45 10° N
Cosmos 1733 3.1 17:51:50 10° S 17:55:31 60° E 17:59:13 10° NNE
MINOTAUR 4 R/B 3.9 17:55:42 10° NNE 17:59:12 74° ESE 18:02:39 10° S
Cosmos 540 Rocket 4.4 17:55:46 10° NNW 18:00:44 53° WSW 18:05:41 10° S
Cosmos 1766 3.9 17:58:26 10° SSE 18:01:57 32° E 18:05:30 10° NNE
Cosmos 1674 Rocket 3.6 17:57:56 10° N 18:02:18 59° ENE 18:06:41 10° SSE
Meteor 2-10 4.2 17:57:58 10° S 18:03:28 58° E 18:08:48 10° NNE
ATLAS 2AS CENTAUR R/B 4.3 17:59:28 10° WNW 18:05:56 30° N 18:12:08 10° NE
YAOGAN 1 2.8 18:02:59 10° SE 18:07:08 48° ENE 18:11:18 10° N
Cosmos 968 Rocket 4.3 18:04:01 10° SSE 18:08:28 28° E 18:12:54 10° NE
Okean O Rocket 1.9 18:06:51 10° SE 18:11:00 44° ENE 18:15:12 10° N
Cosmos 2084 3.8 18:08:35 10° WSW 18:12:20 55° NW 18:16:07 10° NE
Lacrosse 4 Rocket 3.1 18:11:24 10° SE 18:13:10 13° ESE 18:13:56 12° E
SKYMED 2 3.6 18:09:09 10° NNE 18:13:32 88° ESE 18:17:53 10° SSW
Meteor 2-5 Rocket 4.2 18:09:17 10° N 18:14:29 39° ENE 18:19:38 10° SE
Nadezhda 4 Rocket 4.2 18:09:51 10° SSE 18:15:55 51° E 18:22:00 10° NNE
Cosmos 2285 Rocket 4.0 18:14:33 10° NNW 18:20:56 73° ENE 18:27:18 10° SSE
PSLV R/B 4.0 18:19:37 10° S 18:23:16 67° WSW 18:26:56 10° NNW
Cosmos 1726 2.0 18:20:24 10° S 18:24:01 73° E 18:27:41 10° NNE
USA 186 3.3 18:22:42 16° E 18:24:07 20° ENE 18:26:39 10° NNE
Cosmos 2322 Rocket 3.2 18:19:46 10° SSE 18:24:18 25° ESE 18:28:50 10° NE
Cosmos 1470 3.6 18:25:32 10° SSE 18:28:47 27° E 18:32:04 10° NNE
Cosmos 1378 Rocket 3.7 18:24:30 10° NNW 18:28:53 77° W 18:33:12 10° S
CZ-4B R/B 3.2 18:24:06 10° SSE 18:29:31 88° ENE 18:35:04 10° NNW
Cosmos 1975 Rocket 3.9 18:26:02 10° N 18:29:58 30° ENE 18:33:08 14° SE
Cosmos 1980 Rocket 2.5 18:24:25 10° SW 18:30:03 72° WNW 18:35:41 10° NNE
ARGOS Delta rocket 3.9 18:25:30 10° NNE 18:30:48 74° E 18:35:48 10° S
DMSP B5D2-2 4.4 18:26:15 10° N 18:31:32 71° WNW 18:36:46 10° SSW
Cosmos 2292 Rocket 3.8 18:34:06 10° SSE 18:38:53 46° E 18:42:36 10° NNE
Meteor 2-14 Rocket 4.4 18:34:43 10° S 18:40:47 88° W 18:46:54 10° N
Cosmos 1733 Rocket 4.2 18:38:47 10° SSW 18:43:05 48° WNW 18:47:25 10° N
USA 215 3.3 18:37:39 10° ENE 18:44:13 82° NNW 18:50:45 10° WSW
COBE Rocket 4.3 18:42:58 10° S 18:47:46 64° W 18:52:29 10° NNW
Cosmos 1844 Rocket 2.9 18:43:35 10° NNW 18:49:10 53° NE 18:52:58 20° SE
Cosmos 2278 3.8 18:47:44 10° SSW 18:53:26 82° WNW 18:59:10 10° NNE
SL-16 R/B 2.3 18:48:45 10° S 18:54:15 55° ESE 18:59:48 10° NE
Cosmos 1570 Rocket 4.1 18:49:14 10° NNW 18:54:31 79° WSW 18:59:44 10° SSE
Landsat 5 4.1 18:51:07 10° NNE 18:55:18 36° E 18:59:23 10° SSE
Cosmos 1092 Rocket 4.0 18:51:15 10° S 18:57:24 59° E 19:03:32 10° NNE
DMSP B5D1-3 4.4 18:55:35 10° NNE 19:00:44 81° ESE 19:05:52 10° SSW
Resurs 01 Rocket 3.0 19:01:19 22° ENE 19:01:22 22° ENE 19:04:46 10° NNE
COSMO-SKYMED 1 4.4 18:57:30 10° N 19:01:26 33° WNW 19:05:20 10° SW
Meteor 2-21 Rocket 4.4 18:57:26 10° S 19:03:30 85° W 19:09:36 10° N
SJ-6B 2.8 19:02:07 33° SE 19:03:31 53° ENE 19:07:14 10° N
Cosmos 2278 Rocket 3.9 19:00:05 10° N 19:03:48 17° NNE 19:05:41 15° ENE
Cosmos 1437 Rocket 2.6 19:02:38 10° SSW 19:06:22 84° W 19:10:08 10° N
Gbstr 26 Del rocket 4.5 18:59:03 10° WSW 19:06:43 86° SSE 19:12:39 21° ENE
H-2A R/B 3.6 19:07:11 24° NE 19:07:11 24° NE 19:09:56 10° N
Cosmos 2263 Rocket 4.0 19:03:05 10° NW 19:08:03 32° WSW 19:13:00 10° SSW
Meteor 1-24 Rocket 3.5 19:04:37 10° NNW 19:09:57 88° ENE 19:15:21 10° S
Resurs 1-3 3.8 19:11:26 37° ESE 19:12:40 49° ENE 19:16:54 10° N
SL-4 R/B 3.8 19:11:21 10° W 19:15:15 30° SW 19:17:52 18° SSE
Cosmos 921 Rocket 4.5 19:12:13 10° N 19:15:35 23° NE 19:15:35 23° NE
MetOp-A 4.2 19:17:19 32° NE 19:17:19 32° NE 19:20:30 10° N
Cosmos 2084 Rocket 3.5 19:14:40 10° NW 19:18:28 61° SW 19:19:51 36° SSE
USA 267 4.4 19:15:05 10° SSE 19:21:02 36° SW 19:27:01 10° WNW
Okean-O 2.5 19:20:29 35° SSE 19:22:20 74° ENE 19:26:46 10° N
CZ-4 R/B 2.7 19:19:47 10° S 19:23:44 41° W 19:27:43 10° NNW
Cosmos 1486 Rocket 4.2 19:18:39 10° S 19:23:44 48° ESE 19:28:52 10° NNE
Cosmos 1844 3.6 19:18:09 10° NNW 19:23:45 77° ENE 19:26:12 35° SE
OBJECT-B 1.5 19:24:56 39° NW 19:24:56 39° NW 19:26:48 10° NNW
IGS 5A 3.3 19:24:37 37° SSE 19:26:13 87° ENE 19:30:23 10° NNW
DNEPR-1 R/B 4.0 19:23:06 10° SSW 19:27:43 55° ESE 19:30:36 26° NE
Meteor 1-22 Rocket 4.2 19:23:22 10° SSW 19:28:48 82° WNW 19:34:32 10° N
S3M 4.3 19:23:06 10° N 19:29:00 42° ENE 19:30:10 38° E
Cosmos 773 Rocket 4.3 19:25:06 10° NNW 19:30:14 46° ENE 19:31:00 43° E
Cosmos 1300 Rocket 3.4 19:30:15 49° SSE 19:31:11 65° E 19:35:32 10° NNE
CSL-04 Debris 4.2 19:28:02 15° S 19:32:31 78° WSW 19:37:57 10° NNW
Cosmos 1627 Rocket 4.4 19:30:21 10° S 19:36:28 85° W 19:42:39 10° N
USA 81 4.2 19:33:17 10° N 19:38:35 73° W 19:43:21 13° S
Cosmos 2360 Rocket 2.1 19:33:16 10° S 19:38:47 58° ESE 19:44:19 10° NE
Cosmos 1782 Rocket 4.0 19:35:18 10° SSW 19:39:37 62° WNW 19:43:58 10° N
Cosmos 1025 Rocket 3.5 19:38:24 10° NNW 19:42:40 58° W 19:44:51 27° SSW
Cosmos 158 Rocket 4.4 19:40:30 10° NNW 19:44:48 42° NE 19:44:48 42° NE
Okean O Rocket 3.9 19:44:03 10° SSW 19:47:32 23° W 19:51:04 10° NW
Cosmos 1417 Rocket 4.3 19:43:27 10° N 19:49:35 68° ENE 19:51:03 51° SE
Cosmos 968 Rocket 4.4 19:44:55 10° SW 19:50:01 49° WNW 19:55:07 10° NNE
Lacrosse 4 Rocket 1.7 19:47:00 10° SW 19:50:17 57° SW 19:50:17 57° SW
Cosmos 2026 Rocket 4.2 19:47:04 10° SSW 19:53:04 67° WNW 19:59:09 10° N
USA 186 3.5 19:55:51 30° WSW 19:56:13 31° W 19:59:17 10° NNW
CSL-04 Rocket 4.2 19:55:05 21° S 19:58:32 54° W 20:03:53 10° NNW
ATLAS 2AS CENTAUR R/B 3.9 19:52:31 10° NW 19:59:01 32° NNE 20:01:35 25° NE
MOS 1 4.1 20:01:33 68° ESE 20:02:06 74° ENE 20:07:47 10° NNW
Cosmos 1553 Rocket 4.1 19:57:00 10° NNW 20:03:23 77° W 20:06:33 32° S
Landsat 7 4.2 20:04:06 51° SSW 20:04:59 61° WSW 20:09:41 10° NNW
deb Chang Zheng 4 3.9 20:05:56 57° NW 20:05:56 57° NW 20:09:22 10° NNW
Cosmos 1536 Rocket 4.3 20:01:39 10° N 20:04:43 44° N 20:04:43 44° N
SPOT 1/Viking Rocket 3.4 20:07:54 78° NE 20:07:54 78° NE 20:12:52 10° NNW
Cosmos 2322 Rocket 2.5 20:02:13 10° SW 20:07:53 65° WNW 20:13:35 10° NNE
NOSS 3-4 (A) 3.8 20:04:03 10° NW 20:10:46 68° NE 20:12:04 57° E
NOSS 3-4 (C) 3.8 20:04:09 10° NW 20:10:53 67° NE 20:12:10 57° E
Ariane Rocket 3.5 20:16:26 48° NNE 20:16:26 48° NNE 20:20:20 10° N
NOSS 3-3 (A) 4.1 20:15:53 10° SW 20:30:26 - NE 20:20:03 53° SSW
NOSS 3-3 (C) 4.2 20:15:59 10° SW 20:30:31 - NE 20:19:58 49° SSW
Aureole 1 Rocket 3.9 20:18:34 10° SSW 20:25:55 88° ESE 20:31:39 10° NNE
USA 215 3.8 20:24:15 33° NE 20:26:55 52° N 20:33:12 10° W
USA 281 3.7 20:27:40 43° NE 20:27:40 43° NE 20:33:39 10° NNW
Meteor 1-16 Rocket 4.4 20:30:32 72° N 20:30:32 72° N 20:35:50 10° NNE
Cosmos 1844 Rocket 4.2 20:27:54 10° NW 20:32:49 31° WSW 20:34:40 25° SW
Resurs 01 Rocket 3.0 20:38:52 38° NW 20:38:52 38° NW 20:41:54 10° NNW
SL-16 R/B 3.8 20:33:32 10° WSW 20:38:39 33° NW 20:43:47 10° NNE
Cosmos 2315 Rocket 4.1 20:32:16 10° N 20:37:56 69° NNE 20:37:56 69° NNE
Terra 3.9 20:42:42 20° N 20:42:42 20° N 20:44:21 10° N
Cosmos 1943 Rocket 3.8 20:35:42 10° NNW 20:38:59 22° NNE 20:38:59 22° NNE
Cosmos 2278 Rocket 3.0 20:43:28 10° NNW 20:47:32 44° N 20:47:32 44° N
Gbstr 26 Del rocket 4.4 20:46:32 10° W 20:54:34 80° N 20:55:06 76° NE
Cosmos 2369 Rocket 4.3 20:55:43 10° N 20:58:48 17° NNE 20:58:48 17° NNE
Cosmos 2333 Rocket 4.2 21:18:31 21° NNE 21:18:31 21° NNE 21:20:23 10° NNE
Cosmos 2360 Rocket 3.8 21:18:06 10° WSW 21:23:07 32° NW 21:28:10 10° NNE
ATLAS 2AS CENTAUR R/B 3.6 21:43:59 10° NW 21:49:00 46° NNW 21:49:00 46° NNW
USA 215 4.4 22:11:37 39° NW 22:11:37 39° NW 22:15:45 10° WNW
Cosmos 1943 Rocket 4.5 22:19:01 10° NNW 22:20:29 19° NNW 22:20:29 19° NNW
